Location: Houston
(29.7631°N, 95.3631°W)
Time: 11:53:15
(UTC-05:00)

UNISAT 6 - Pass Details

Date: 28 September 2021
Orbit: 606 x 687 km, 97.7° (Epoch: 24 October)

Event Time Altitude Azimuth Distance (km) Brightness Sun altitude
Rises 21:10:03 0° 353° (N) 3,051 ? -26.7°
Reaches altitude 10° 21:12:45 10° 338° (NNW) 2,126 ? -27.2°
Maximum altitude 21:16:14 21° 290° (WNW) 1,490 ? -28.0°
Drops below altitude 10° 21:19:41 10° 240° (WSW) 2,091 ? -28.7°
Sets 21:22:19 0° 225° (SW) 2,986 ? -29.3°
